�N����,����,�~����,�C��,���x,�C��,����,���ϕ���,�ő�u�ԕ���,�ő厞����,���˗�,�I�_���x,�n�����x,�ő啗���N��,DTYPE
"22/06/27","00:10",0.0,24.4,85.2,1010.0,310.4,1.3,2.6,342.6,0.00,21.8,24.2,"00:09:52",1
"22/06/27","00:20",0.0,24.4,85.1,1010.2,318.8,1.7,2.9,335.8,0.00,21.8,24.2,"00:10:08",1
"22/06/27","00:30",0.0,24.3,85.2,1010.0,324.8,1.7,2.8,349.9,0.00,21.7,24.2,"00:29:20",1
"22/06/27","00:40",0.0,24.3,85.3,1010.0,311.4,1.1,2.6,336.8,0.00,21.7,24.1,"00:30:40",1
"22/06/27","00:50",0.0,24.1,85.3,1010.0,178.5,0.2,0.6,211.5,0.00,21.5,24.0,"00:46:24",1
"22/06/27","01:00",0.0,24.2,85.6,1010.0,273.8,1.1,2.1,304.3,0.00,21.7,23.9,"00:59:20",1
"22/06/27","01:10",0.0,24.4,85.6,1010.2,325.0,1.6,2.6,347.6,0.00,21.9,23.9,"01:06:56",1
"22/06/27","01:20",0.0,24.4,85.5,1010.2,308.8,0.7,2.6,339.9,0.00,21.9,23.8,"01:11:12",1
"22/06/27","01:30",0.0,24.5,85.4,1010.7,311.5,0.8,1.7,306.1,0.00,21.9,23.7,"01:21:04",1
"22/06/27","01:40",0.0,24.3,85.4,1010.2,325.9,0.8,1.3,336.4,0.00,21.7,24.1,"01:30:08",1
"22/06/27","01:50",0.0,24.3,85.8,1010.7,336.9,1.3,2.5,346.4,0.00,21.8,23.8,"01:45:04",1
"22/06/27","02:00",0.0,24.0,86.3,1010.4,332.3,1.3,2.2,323.3,0.00,21.6,23.8,"01:58:32",1
"22/06/27","02:10",0.0,23.9,86.7,1010.4,317.7,1.2,2.2,345.1,0.00,21.6,23.8,"02:07:44",1
"22/06/27","02:20",0.0,23.8,87.0,1010.7,307.7,0.8,1.3,305.3,0.00,21.5,23.8,"02:10:08",1
"22/06/27","02:30",0.0,23.7,87.2,1010.7,316.4,0.5,1.1,328.0,0.00,21.5,23.7,"02:20:40",1
"22/06/27","02:40",0.0,23.6,87.5,1010.4,310.7,0.7,1.3,318.6,0.00,21.4,23.9,"02:35:44",1
"22/06/27","02:50",0.0,23.9,87.9,1010.7,343.6,1.1,1.7,342.5,0.00,21.8,23.9,"02:48:48",1
"22/06/27","03:00",0.0,23.9,88.2,1010.4,333.0,1.1,1.4,354.3,0.00,21.9,23.7,"02:50:08",1
"22/06/27","03:10",0.0,23.8,88.6,1010.7,316.8,1.1,1.9,333.9,0.00,21.8,23.7,"03:06:32",1
"22/06/27","03:20",0.0,23.7,88.8,1010.4,311.0,0.7,1.1,339.4,0.00,21.8,23.7,"03:10:08",1
"22/06/27","03:30",0.0,23.8,88.9,1010.7,307.3,0.3,1.1,312.1,0.00,21.9,23.7,"03:20:40",1
"22/06/27","03:40",0.0,23.8,89.0,1010.4,323.2,0.7,1.0,314.7,0.00,21.9,23.7,"03:35:44",1
"22/06/27","03:50",0.0,23.9,89.2,1010.4,292.6,0.8,1.3,310.5,0.00,22.1,23.8,"03:42:00",1
"22/06/27","04:00",0.0,23.7,89.4,1010.2,323.2,0.7,1.2,328.9,0.00,21.9,23.6,"03:55:12",1
"22/06/27","04:10",0.0,23.7,89.5,1010.4,315.7,0.6,1.4,357.2,0.00,21.9,23.6,"04:00:08",1
"22/06/27","04:20",0.0,23.8,89.8,1010.4,339.9,1.2,1.6,347.8,0.00,22.1,23.7,"04:18:56",1
"22/06/27","04:30",0.0,23.6,89.9,1010.4,309.8,0.6,1.3,267.6,0.00,21.9,23.6,"04:27:28",1
"22/06/27","04:40",0.0,23.4,90.3,1010.7,302.4,0.8,1.3,308.5,0.00,21.8,23.5,"04:37:36",1
"22/06/27","04:50",0.0,23.2,90.5,1010.4,301.1,0.8,1.2,322.6,0.00,21.6,23.6,"04:41:52",1
"22/06/27","05:00",0.0,23.1,90.8,1010.9,318.3,1.2,1.6,334.1,0.00,21.6,23.7,"04:53:44",1
"22/06/27","05:10",0.0,23.0,91.1,1010.9,320.4,1.0,1.4,326.5,0.00,21.5,23.4,"05:04:08",1
"22/06/27","05:20",0.0,22.7,91.3,1010.4,302.8,0.7,1.3,323.8,0.00,21.2,23.7,"05:10:16",1
"22/06/27","05:30",0.0,22.6,91.5,1010.7,312.3,1.1,1.4,320.8,0.00,21.2,23.5,"05:25:20",1
"22/06/27","05:40",0.0,22.7,91.8,1010.7,315.2,1.2,2.2,337.7,0.00,21.3,23.5,"05:38:16",1
"22/06/27","05:50",0.0,22.7,91.9,1010.7,314.5,1.2,2.5,340.3,0.00,21.4,23.7,"05:40:32",1
"22/06/27","06:00",0.0,22.8,92.1,1010.7,315.4,1.1,1.3,310.4,0.00,21.5,23.6,"05:54:16",1
"22/06/27","06:10",0.0,22.9,92.3,1010.9,294.0,1.0,1.4,316.7,0.00,21.6,23.5,"06:01:36",1
"22/06/27","06:20",0.0,23.3,92.5,1010.7,305.1,0.8,1.1,311.8,0.02,22.1,23.5,"06:13:36",1
"22/06/27","06:30",0.0,24.0,92.5,1010.7,318.4,0.7,1.4,304.7,0.03,22.7,23.4,"06:21:28",1
"22/06/27","06:40",0.0,24.9,92.5,1010.2,322.8,0.5,0.8,318.1,0.04,23.6,23.5,"06:32:40",1
"22/06/27","06:50",0.0,26.1,92.3,1010.4,325.1,0.1,0.8,350.6,0.06,24.8,23.3,"06:49:28",1
"22/06/27","07:00",0.0,26.3,91.9,1010.9,358.7,0.6,1.4,9.3,0.08,24.9,23.6,"06:52:32",1
"22/06/27","07:10",0.0,26.4,90.6,1010.4,268.0,0.1,0.4,218.8,0.11,24.8,23.4,"07:03:52",1
"22/06/27","07:20",0.0,27.1,89.6,1010.0,220.0,0.1,1.0,8.3,0.14,25.3,23.2,"07:19:12",1
"22/06/27","07:30",0.0,26.9,87.1,1010.0,0.4,1.0,1.8,351.5,0.14,24.6,23.4,"07:29:12",1
"22/06/27","07:40",0.0,27.6,84.3,1009.5,3.9,0.8,1.4,27.5,0.19,24.8,23.3,"07:32:08",1
"22/06/27","07:50",0.0,28.4,80.5,1009.7,118.6,0.5,1.9,146.5,0.22,24.8,23.2,"07:45:52",1
"22/06/27","08:00",0.0,29.0,77.1,1010.0,64.2,0.3,2.0,43.2,0.25,24.6,23.7,"07:57:44",1
"22/06/27","08:10",0.0,29.5,74.9,1010.4,165.3,0.7,1.7,120.4,0.28,24.6,23.5,"08:09:44",1
"22/06/27","08:20",0.0,29.8,72.9,1010.7,171.4,0.5,1.3,109.9,0.27,24.5,23.5,"08:19:28",1
"22/06/27","08:30",0.0,29.8,70.8,1010.4,286.8,0.6,1.3,234.2,0.27,24.0,23.5,"08:24:24",1
"22/06/27","08:40",0.0,29.7,72.0,1010.4,140.6,1.0,2.0,123.8,0.23,24.2,23.6,"08:31:36",1
"22/06/27","08:50",0.0,30.0,72.0,1010.9,113.5,0.6,1.3,134.4,0.27,24.4,23.6,"08:40:16",1
"22/06/27","09:00",0.0,30.5,69.6,1010.7,144.0,0.6,1.8,2.3,0.32,24.4,23.7,"08:58:48",1
"22/06/27","09:10",0.0,30.6,68.4,1011.2,284.9,0.7,2.4,350.2,0.33,24.2,23.5,"09:06:40",1
"22/06/27","09:20",0.0,31.0,67.9,1010.9,43.5,0.7,1.8,358.4,0.31,24.4,23.6,"09:10:16",1
"22/06/27","09:30",0.0,31.1,66.2,1011.2,97.6,0.8,2.1,9.3,0.34,24.1,23.7,"09:28:24",1
"22/06/27","09:40",0.0,31.7,65.7,1011.2,97.0,0.8,1.7,83.0,0.36,24.5,23.8,"09:33:04",1
"22/06/27","09:50",0.0,31.7,65.2,1010.9,164.0,0.7,1.9,173.6,0.43,24.4,23.8,"09:40:08",1
"22/06/27","10:00",0.0,32.3,62.6,1011.4,357.0,0.6,2.0,339.8,0.41,24.3,23.8,"09:56:40",1
"22/06/27","10:10",0.0,31.7,64.3,1011.4,192.1,1.3,3.4,204.1,0.38,24.2,23.9,"10:03:04",1
"22/06/27","10:20",0.0,31.1,65.9,1010.9,186.0,2.1,3.5,183.7,0.38,24.0,23.9,"10:18:16",1
"22/06/27","10:30",0.0,31.2,67.8,1010.9,202.6,2.0,3.5,208.5,0.39,24.6,24.1,"10:27:04",1
"22/06/27","10:40",0.0,31.6,67.4,1010.9,173.6,1.8,3.4,213.7,0.44,24.9,24.1,"10:31:52",1
"22/06/27","10:50",0.0,31.3,67.2,1011.2,181.4,2.2,4.2,207.1,0.40,24.5,24.1,"10:41:12",1
"22/06/27","11:00",0.0,31.5,68.6,1010.9,173.1,2.0,3.7,175.9,0.38,25.1,24.1,"10:50:48",1
"22/06/27","11:10",0.0,31.4,68.0,1011.2,196.7,2.5,4.3,210.9,0.40,24.8,24.4,"11:01:52",1
"22/06/27","11:20",0.0,31.5,66.5,1010.9,188.1,2.0,3.6,217.8,0.39,24.5,24.4,"11:10:16",1
"22/06/27","11:30",0.0,31.9,65.7,1010.7,183.5,2.1,4.0,232.1,0.49,24.7,24.3,"11:24:32",1
"22/06/27","11:40",0.0,32.3,65.5,1010.9,191.0,1.6,3.6,218.0,0.43,25.0,24.6,"11:31:44",1
"22/06/27","11:50",0.0,32.1,63.9,1011.2,168.3,1.8,4.2,226.4,0.46,24.4,24.5,"11:48:56",1
"22/06/27","12:00",0.0,32.7,63.6,1010.9,172.0,1.8,4.3,210.3,0.56,24.9,24.7,"11:54:32",1
"22/06/27","12:10",0.0,32.3,62.7,1010.7,169.6,2.1,5.1,197.1,0.39,24.3,24.5,"12:07:52",1
"22/06/27","12:20",0.0,32.1,64.1,1010.4,179.7,1.5,4.3,233.7,0.24,24.5,24.8,"12:12:24",1
"22/06/27","12:30",0.0,32.4,65.0,1010.7,148.2,1.3,2.7,134.5,0.36,25.0,24.8,"12:25:28",1
"22/06/27","12:40",0.0,32.8,63.6,1010.0,171.6,1.7,3.4,241.9,0.45,25.0,25.0,"12:38:48",1
"22/06/27","12:50",0.0,32.5,61.0,1010.2,232.1,2.1,4.0,234.3,0.39,24.0,24.8,"12:44:00",1
"22/06/27","13:00",0.0,32.5,63.2,1010.0,187.7,2.0,4.1,219.5,0.33,24.6,25.1,"12:52:00",1
"22/06/27","13:10",0.0,32.2,62.2,1010.0,229.5,1.2,2.7,181.3,0.21,24.1,25.0,"13:01:12",1
"22/06/27","13:20",0.0,32.1,62.3,1009.7,239.6,1.0,2.5,244.3,0.16,24.0,25.1,"13:16:16",1
"22/06/27","13:30",0.0,32.4,62.1,1009.7,233.1,1.1,3.5,224.4,0.27,24.2,24.9,"13:28:48",1
"22/06/27","13:40",0.0,33.0,61.7,1009.3,238.7,1.2,3.1,234.1,0.49,24.7,25.3,"13:31:52",1
"22/06/27","13:50",0.0,34.1,59.8,1010.0,216.7,1.2,3.3,237.8,0.66,25.2,25.2,"13:48:16",1
"22/06/27","14:00",0.0,34.5,58.6,1010.2,195.6,2.0,5.0,194.2,0.61,25.2,25.4,"13:54:40",1
"22/06/27","14:10",0.0,33.1,59.2,1009.5,186.3,1.8,4.5,228.1,0.23,24.1,25.5,"14:05:28",1
"22/06/27","14:20",0.0,32.1,60.6,1009.3,217.0,2.6,4.3,231.4,0.11,23.6,25.3,"14:14:32",1
"22/06/27","14:30",0.0,32.1,61.2,1008.6,229.4,1.8,3.6,234.0,0.11,23.7,25.5,"14:20:48",1
"22/06/27","14:40",0.0,31.8,62.3,1008.1,243.0,1.1,2.5,224.7,0.07,23.7,25.4,"14:38:40",1
"22/06/27","14:50",0.0,31.8,63.0,1008.1,256.8,1.0,1.9,235.9,0.08,23.9,25.6,"14:45:20",1
"22/06/27","15:00",0.0,31.6,64.4,1008.1,252.9,1.3,2.8,236.7,0.08,24.1,25.6,"14:58:48",1
"22/06/27","15:10",0.0,31.3,64.4,1008.3,248.9,1.5,3.2,240.1,0.08,23.8,25.5,"15:01:28",1
"22/06/27","15:20",0.0,31.2,65.4,1008.3,235.2,1.5,2.9,231.2,0.09,24.0,25.4,"15:19:28",1
"22/06/27","15:30",0.0,31.2,65.5,1008.1,238.5,1.8,3.6,230.8,0.14,24.0,25.5,"15:25:36",1
"22/06/27","15:40",0.0,31.2,65.1,1008.1,252.9,1.3,3.4,224.0,0.16,23.9,25.5,"15:37:20",1
"22/06/27","15:50",0.0,31.3,64.6,1008.3,250.1,1.7,3.7,237.0,0.16,23.9,25.4,"15:49:36",1
"22/06/27","16:00",0.0,31.3,64.7,1007.8,260.9,1.2,2.7,233.6,0.15,23.9,25.6,"15:55:44",1
"22/06/27","16:10",0.0,31.1,64.3,1008.1,281.2,1.2,3.3,240.9,0.12,23.6,25.4,"16:03:04",1
"22/06/27","16:20",0.0,30.9,65.1,1008.6,320.3,1.3,3.4,350.9,0.10,23.6,25.6,"16:19:04",1
"22/06/27","16:30",0.0,30.6,66.0,1007.8,339.9,2.0,4.1,353.0,0.07,23.6,25.6,"16:22:08",1
"22/06/27","16:40",0.0,30.5,66.8,1007.6,322.7,1.0,2.1,340.2,0.05,23.7,25.4,"16:34:08",1
"22/06/27","16:50",0.0,30.3,67.4,1007.6,283.2,0.8,1.9,253.9,0.04,23.6,25.5,"16:49:04",1
"22/06/27","17:00",0.0,30.0,68.0,1007.1,332.9,1.6,2.9,344.2,0.04,23.5,25.5,"16:58:56",1
"22/06/27","17:10",0.0,30.0,68.4,1006.9,330.3,1.3,2.5,339.4,0.03,23.6,25.6,"17:03:36",1
"22/06/27","17:20",0.0,29.9,69.6,1007.1,329.7,1.3,3.2,351.1,0.05,23.8,25.4,"17:17:52",1
"22/06/27","17:30",0.0,29.9,70.2,1007.1,326.2,1.2,2.7,323.8,0.07,23.9,25.4,"17:27:36",1
"22/06/27","17:40",0.0,30.1,69.8,1007.1,312.0,0.8,2.2,357.7,0.07,24.0,25.6,"17:37:52",1
"22/06/27","17:50",0.0,30.1,69.3,1007.4,336.3,0.5,2.8,325.0,0.06,23.9,25.5,"17:40:56",1
"22/06/27","18:00",0.0,30.1,68.6,1007.1,349.7,1.1,2.2,344.2,0.04,23.7,25.4,"17:57:52",1
"22/06/27","18:10",0.0,30.0,68.4,1007.4,309.2,1.0,1.7,349.2,0.03,23.6,25.5,"18:00:32",1
"22/06/27","18:20",0.0,30.0,68.4,1006.9,246.6,1.1,2.5,234.3,0.03,23.6,25.5,"18:14:00",1
"22/06/27","18:30",0.0,29.9,68.3,1007.1,253.5,0.8,2.0,241.4,0.05,23.5,25.3,"18:29:12",1
"22/06/27","18:40",0.0,30.1,68.3,1007.1,262.8,1.0,2.4,249.7,0.05,23.7,25.4,"18:30:48",1
"22/06/27","18:50",0.0,30.1,68.1,1007.6,260.2,0.8,2.1,235.5,0.05,23.6,25.5,"18:42:48",1
"22/06/27","19:00",0.0,30.0,68.5,1007.4,283.1,0.8,1.7,253.3,0.04,23.6,25.4,"18:51:20",1
"22/06/27","19:10",0.0,29.9,69.2,1007.1,306.9,0.8,1.7,242.4,0.02,23.7,25.3,"19:00:16",1
"22/06/27","19:20",0.0,29.5,70.0,1006.9,303.3,0.7,1.8,357.9,0.00,23.5,25.3,"19:18:40",1
"22/06/27","19:30",0.0,29.1,70.7,1006.9,292.6,0.8,2.1,312.7,0.00,23.3,25.3,"19:29:20",1
"22/06/27","19:40",0.0,28.9,71.2,1006.7,264.1,1.2,3.1,241.2,0.00,23.2,25.4,"19:33:12",1
"22/06/27","19:50",0.0,28.8,72.8,1006.9,9.6,0.7,1.8,312.7,0.00,23.5,25.3,"19:40:16",1
"22/06/27","20:00",0.0,28.2,74.2,1006.9,42.0,0.5,1.2,38.4,0.00,23.2,25.3,"19:51:36",1
"22/06/27","20:10",0.0,27.9,76.1,1007.4,333.8,0.7,1.3,313.3,0.00,23.3,25.2,"20:05:04",1
"22/06/27","20:20",0.0,27.5,77.7,1007.6,336.3,0.6,1.3,325.0,0.00,23.3,25.3,"20:15:44",1
"22/06/27","20:30",0.0,27.3,78.8,1007.8,318.6,1.0,1.8,336.8,0.00,23.3,25.3,"20:27:44",1
"22/06/27","20:40",0.0,27.2,79.7,1008.1,339.3,1.1,2.0,348.6,0.00,23.4,25.2,"20:39:36",1
"22/06/27","20:50",0.0,26.8,80.6,1008.1,303.0,0.7,1.3,348.3,0.00,23.2,25.2,"20:41:12",1
"22/06/27","21:00",0.0,26.5,81.3,1008.6,292.3,0.7,1.1,305.2,0.00,23.1,25.2,"20:50:48",1
"22/06/27","21:10",0.0,26.5,82.0,1008.3,328.8,1.0,1.7,344.2,0.00,23.2,25.2,"21:05:20",1
"22/06/27","21:20",0.0,26.2,82.6,1008.6,305.0,0.7,1.7,338.9,0.00,23.0,25.2,"21:17:20",1
"22/06/27","21:30",0.0,26.0,83.2,1009.0,309.6,0.6,1.6,339.2,0.00,23.0,25.2,"21:20:32",1
"22/06/27","21:40",0.0,26.0,83.9,1008.6,321.3,1.0,1.3,330.5,0.00,23.1,25.2,"21:37:36",1
"22/06/27","21:50",0.0,25.7,84.7,1009.0,299.9,0.8,1.2,343.2,0.00,23.0,25.0,"21:41:28",1
"22/06/27","22:00",0.0,25.7,85.3,1009.3,333.0,1.3,2.1,346.6,0.00,23.1,24.9,"21:56:40",1
"22/06/27","22:10",0.0,25.7,85.6,1009.3,344.1,1.0,1.6,349.9,0.00,23.1,25.0,"22:02:16",1
"22/06/27","22:20",0.0,25.4,85.9,1008.8,301.2,0.5,0.9,299.5,0.00,22.9,25.0,"22:14:32",1
"22/06/27","22:30",0.0,25.3,86.4,1009.3,313.4,1.0,2.1,340.1,0.00,22.9,25.0,"22:27:28",1
"22/06/27","22:40",0.0,25.3,86.7,1008.8,324.2,1.0,2.2,313.6,0.00,23.0,24.6,"22:31:04",1
"22/06/27","22:50",0.0,25.2,87.0,1009.3,302.0,1.0,1.8,343.1,0.00,22.9,24.8,"22:45:52",1
"22/06/27","23:00",0.0,25.0,87.2,1009.0,303.0,0.8,2.0,321.6,0.00,22.8,24.9,"22:59:28",1
"22/06/27","23:10",0.0,25.1,87.3,1009.3,321.6,1.3,2.5,347.0,0.00,22.9,24.6,"23:07:04",1
"22/06/27","23:20",0.0,25.1,87.5,1009.3,325.0,1.6,2.6,349.2,0.00,22.9,24.8,"23:13:52",1
"22/06/27","23:30",0.0,25.1,87.5,1009.3,313.5,1.7,3.1,319.4,0.00,22.9,24.9,"23:29:20",1
"22/06/27","23:40",0.0,25.0,87.6,1009.3,332.4,2.2,3.4,344.8,0.00,22.8,24.5,"23:31:12",1
"22/06/27","23:50",0.0,24.9,87.6,1009.0,310.6,0.7,1.9,340.2,0.00,22.7,24.5,"23:40:08",1
"22/06/27","24:00",0.0,24.7,87.9,1009.0,176.7,0.7,1.2,126.1,0.00,22.6,24.6,"23:53:36",1
